Weather History for Port Angeles, WA

Change the Weather History Date:

Sunday, December 29, 2013

  Actual Average Record
Temperature  
Mean Temperature 39 °F -  
Max Temperature 46 °F 42 °F 59 °F (1949)
Min Temperature 32 °F 33 °F 10 °F (1968)
Degree Days  
Heating Degree Days 26    
Moisture  
Dew Point 37 °F    
Average Humidity 86    
Maximum Humidity 97    
Minimum Humidity 73    
Precipitation  
Precipitation 0.00 in - - ()
Sea Level Pressure  
Sea Level Pressure 30.39 in    
Wind  
Wind Speed 2 mph (SW)    
Max Wind Speed 7 mph    
Max Gust Speed -    
Visibility 10 miles    
Events      
Averages and records for this station are not official NWS values.
T = Trace of Precipitation, MM = Missing Value Source: NWS Daily Summary

Daily Weather History Graph

Daily Weather History Graph

Search for Another Location

Airport:

Trip Planner

Search our weather history database for the weather conditions in past years. The results will help you decide how hot, cold, wet, or windy it might be!

Date:

Astronomy

Dec. 29, 2013 Rise Set
Actual Time 8:04 AM PST 4:28 PM PST
Civil Twilight 7:27 AM PST 5:04 PM PST
Nautical Twilight 6:48 AM PST 5:44 PM PST
Astronomical Twilight 6:10 AM PST 6:22 PM PST
Moon 4:47 AM PST (12/29) 2:16 PM PST (12/29)
Length of Visible Light 9h 37m
Length of Day
8h 24m
Waning Crescent, 10% of the Moon is Illuminated
Dec 29
Waning Crescent
Jan 1
New
Jan 7
First Quarter
Jan 15
Full
Jan 23
Last Quarter

Hourly Weather History & Observations

Time (PST) Temp. Windchill Dew Point Humidity Pressure Visibility Wind Dir Wind Speed Gust Speed Precip Events Conditions
12:53 AM 32.0 °F - 30.0 °F 92% 30.50 in 10.0 mi Calm Calm - N/A   Clear
1:53 AM 32.0 °F 28.7 °F 30.9 °F 96% 30.46 in 10.0 mi Variable 3.5 mph - N/A   Clear
2:53 AM 35.1 °F 29.3 °F 32.0 °F 89% 30.46 in 10.0 mi SW 6.9 mph - N/A   Clear
3:53 AM 36.0 °F - 33.1 °F 89% 30.45 in 10.0 mi North - - N/A   Clear
4:53 AM 34.0 °F - 33.1 °F 96% 30.43 in 10.0 mi North - - N/A   Overcast
5:53 AM 37.9 °F - 34.0 °F 86% 30.42 in 10.0 mi North - - N/A   Overcast
6:53 AM 37.9 °F - 34.0 °F 86% 30.40 in 10.0 mi North - - N/A   Overcast
7:53 AM 37.9 °F - 34.0 °F 86% 30.41 in 10.0 mi North - - N/A   Overcast
8:10 AM 39.0 °F - 35.1 °F 86% 30.40 in 10.0 mi North - - N/A   Overcast
8:42 AM 37.9 °F - 36.0 °F 93% 30.39 in 10.0 mi North - - N/A   Overcast
8:53 AM 39.0 °F - 37.0 °F 93% 30.41 in 10.0 mi North - - N/A   Overcast
9:07 AM 39.9 °F - 37.0 °F 89% 30.40 in 10.0 mi North - - N/A   Overcast
9:53 AM 42.1 °F - 37.0 °F 82% 30.42 in 10.0 mi North - - N/A   Overcast
10:53 AM 44.1 °F - 37.9 °F 79% 30.41 in 10.0 mi North - - N/A   Overcast
11:12 AM 44.1 °F - 39.0 °F 82% 30.39 in 10.0 mi North - - N/A   Overcast
11:22 AM 45.0 °F - 39.0 °F 80% 30.39 in 10.0 mi North - - N/A   Overcast
11:36 AM 45.0 °F - 37.9 °F 76% 30.39 in 10.0 mi North - - N/A   Overcast
11:53 AM 46.0 °F - 37.9 °F 73% 30.38 in 10.0 mi North - - N/A   Overcast
12:53 PM 45.0 °F - 39.0 °F 80% 30.38 in 10.0 mi North - - N/A   Overcast
1:53 PM 45.0 °F - 39.0 °F 80% 30.37 in 10.0 mi North - - N/A   Overcast
2:53 PM 45.0 °F - 39.0 °F 80% 30.35 in 10.0 mi North - - N/A   Overcast
3:53 PM 45.0 °F - 39.0 °F 80% 30.36 in 10.0 mi North - - N/A   Overcast
4:53 PM 44.1 °F - 39.0 °F 82% 30.36 in 10.0 mi North - - N/A   Overcast
5:53 PM 44.1 °F - 39.0 °F 82% 30.34 in 10.0 mi North - - N/A   Overcast
6:53 PM 43.0 °F - 39.0 °F 86% 30.35 in 10.0 mi North - - N/A   Overcast
7:53 PM 42.1 °F - 39.9 °F 92% 30.34 in 10.0 mi North - - N/A   Overcast
8:53 PM 42.1 °F - 39.0 °F 89% 30.34 in 10.0 mi North - - N/A   Overcast
9:53 PM 42.1 °F - 39.0 °F 89% 30.33 in 10.0 mi North - - N/A   Overcast
10:53 PM 39.9 °F - 37.0 °F 89% 30.32 in 10.0 mi North - - N/A   Overcast
11:53 PM 37.9 °F - 37.0 °F 97% 30.32 in 10.0 mi North - - N/A   Mostly Cloudy